| time (UTC) | temp F | wind direction | speed MPH | gust MPH | rain 1hr in | rain 24hr in | rain mn in | humidity % | barometer mb |
| 20260510035550 | 69 | 336 | 0.0 | 0.0 | 0.01 | 0.84 | 0.84 | 89 | 1014.2 |
| 20260510035050 | 69 | 336 | 0.0 | 0.0 | 0.01 | 0.84 | 0.84 | 89 | 1014.2 |
| 20260510034548 | 69 | 336 | 0.0 | 0.0 | 0.01 | 0.84 | 0.84 | 88 | 1014.2 |
| 20260510034545 | 69 | 278 | 0.0 | 0.0 | 0.01 | 0.84 | 0.84 | 89 | 1013.4 |
| 20260510033541 | 69 | 336 | 0.0 | 0.0 | 0.00 | 0.83 | 0.83 | 88 | 1014.2 |
| 20260510033044 | 69 | 278 | 0.0 | 0.0 | 0.00 | 0.83 | 0.83 | 89 | 1013.4 |
| 20260510032539 | 69 | 336 | 0.0 | 0.0 | 0.00 | 0.83 | 0.83 | 88 | 1014.4 |
| 20260510032033 | 69 | 336 | 0.0 | 1.0 | 0.00 | 0.83 | 0.83 | 88 | 1014.3 |
| 20260510031544 | 69 | 278 | 0.0 | 2.0 | 0.00 | 0.83 | 0.83 | 89 | 1013.3 |
| 20260510031534 | 69 | 336 | 1.0 | 2.0 | 0.00 | 0.83 | 0.83 | 88 | 1014.1 |
| 20260510031035 | 69 | 336 | 1.0 | 2.0 | 0.00 | 0.83 | 0.83 | 88 | 1014.1 |
| 20260510030532 | 69 | 336 | 0.0 | 0.0 | 0.00 | 0.83 | 0.83 | 88 | 1014.0 |
| 20260510030052 | 69 | 278 | 0.0 | 0.0 | 0.00 | 0.83 | 0.83 | 89 | 1013.2 |
| 20260510030032 | 69 | 336 | 0.0 | 0.0 | 0.00 | 0.83 | 0.83 | 88 | 1014.0 |
| 20260510025532 | 69 | 336 | 0.0 | 0.0 | 0.00 | 0.83 | 0.83 | 88 | 1013.9 |
| 20260510024543 | 69 | 278 | 0.0 | 0.0 | 0.00 | 0.83 | 0.83 | 89 | 1012.9 |
| 20260510024530 | 69 | 336 | 0.0 | 0.0 | 0.00 | 0.83 | 0.83 | 88 | 1013.7 |
| 20260510024033 | 69 | 336 | 0.0 | 0.0 | 0.00 | 0.83 | 0.83 | 88 | 1013.7 |
| 20260510023527 | 69 | 336 | 0.0 | 0.0 | 0.00 | 0.83 | 0.83 | 88 | 1013.7 |
| 20260510023042 | 69 | 278 | 0.0 | 1.0 | 0.00 | 0.83 | 0.83 | 89 | 1012.8 |
| 20260510023027 | 69 | 336 | 0.0 | 3.0 | 0.00 | 0.83 | 0.83 | 88 | 1013.6 |
| 20260510022025 | 69 | 336 | 1.0 | 3.0 | 0.00 | 0.83 | 0.83 | 88 | 1013.6 |
| 20260510021543 | 69 | 277 | 0.0 | 2.0 | 0.00 | 0.83 | 0.83 | 89 | 1012.7 |
| 20260510021525 | 69 | 335 | 0.0 | 2.0 | 0.00 | 0.83 | 0.83 | 88 | 1013.5 |
| 20260510020526 | 69 | 335 | 1.0 | 2.0 | 0.00 | 0.83 | 0.83 | 88 | 1013.4 |
| 20260510020044 | 69 | 276 | 0.0 | 2.0 | 0.00 | 0.83 | 0.83 | 89 | 1012.5 |
| 20260510020025 | 69 | 334 | 0.0 | 2.0 | 0.00 | 0.83 | 0.83 | 88 | 1013.4 |
| 20260510015529 | 69 | 334 | 0.0 | 2.0 | 0.00 | 0.84 | 0.83 | 88 | 1013.5 |
| 20260510015020 | 69 | 334 | 0.0 | 0.0 | 0.00 | 0.85 | 0.83 | 88 | 1013.6 |
| 20260510014541 | 69 | 276 | 0.0 | 0.0 | 0.00 | 0.88 | 0.83 | 89 | 1012.6 |
| 20260510014512 | 69 | 334 | 0.0 | 0.0 | 0.00 | 0.86 | 0.83 | 88 | 1013.4 |
| 20260510014003 | 69 | 334 | 0.0 | 2.0 | 0.00 | 0.87 | 0.83 | 88 | 1013.4 |
| 20260510013040 | 69 | 276 | 0.0 | 0.0 | 0.00 | 0.88 | 0.83 | 89 | 1012.7 |
| 20260510013001 | 69 | 334 | 0.0 | 0.0 | 0.00 | 0.88 | 0.83 | 88 | 1013.5 |
| 20260510012503 | 70 | 334 | 0.0 | 0.0 | 0.00 | 0.88 | 0.83 | 88 | 1013.4 |
| 20260510012005 | 70 | 334 | 0.0 | 0.0 | 0.00 | 0.88 | 0.83 | 88 | 1013.3 |
| 20260510011546 | 69 | 276 | 0.0 | 0.0 | 0.00 | 0.88 | 0.83 | 89 | 1012.5 |
| 20260510011457 | 70 | 334 | 0.0 | 1.0 | 0.01 | 0.88 | 0.83 | 88 | 1013.2 |
| 20260510010950 | 70 | 334 | 0.0 | 1.0 | 0.01 | 0.88 | 0.83 | 88 | 1013.2 |
| 20260510010454 | 70 | 334 | 0.0 | 1.0 | 0.02 | 0.88 | 0.83 | 88 | 1013.1 |
| 20260510010040 | 69 | 276 | 0.0 | 1.0 | 0.02 | 0.88 | 0.83 | 89 | 1012.4 |
| 20260510005944 | 70 | 334 | 0.0 | 1.0 | 0.02 | 0.88 | 0.83 | 88 | 1013.2 |
| 20260510005433 | 70 | 334 | 0.0 | 0.0 | 0.03 | 0.88 | 0.83 | 88 | 1013.2 |
| 20260510004921 | 70 | 334 | 0.0 | 2.0 | 0.03 | 0.88 | 0.83 | 88 | 1013.2 |
| 20260510004539 | 70 | 276 | 0.0 | 2.0 | 0.03 | 0.88 | 0.83 | 89 | 1012.3 |
| 20260510004415 | 70 | 334 | 1.0 | 3.0 | 0.03 | 0.88 | 0.83 | 88 | 1013.2 |
| 20260510003915 | 70 | 334 | 1.0 | 3.0 | 0.03 | 0.88 | 0.83 | 88 | 1013.1 |
| 20260510003416 | 70 | 145 | 0.0 | 2.0 | 0.03 | 0.88 | 0.83 | 88 | 1012.8 |
| 20260510003042 | 70 | 87 | 0.0 | 2.0 | 0.03 | 0.88 | 0.83 | 89 | 1012.1 |
| 20260510002913 | 70 | 145 | 0.0 | 2.0 | 0.03 | 0.88 | 0.83 | 88 | 1013.0 |
| 20260510002429 | 70 | 145 | 0.0 | 2.0 | 0.03 | 0.88 | 0.83 | 88 | 1013.0 |
| 20260510001538 | 70 | 87 | 0.0 | 2.0 | 0.03 | 0.88 | 0.83 | 89 | 1012.0 |
| 20260510001401 | 70 | 145 | 0.0 | 2.0 | 0.02 | 0.87 | 0.82 | 88 | 1012.8 |
| 20260510000915 | 71 | 145 | 0.0 | 1.0 | 0.02 | 0.87 | 0.82 | 88 | 1012.9 |
| 20260510000042 | 70 | 87 | 0.0 | 3.0 | 0.01 | 0.86 | 0.81 | 89 | 1012.1 |
| 20260509235348 | 71 | 144 | 1.0 | 3.0 | 0.00 | 0.85 | 0.80 | 88 | 1013.0 |
| 20260509234839 | 71 | 164 | 0.0 | 3.0 | 0.00 | 0.85 | 0.80 | 87 | 1013.4 |
| 20260509234541 | 70 | 106 | 1.0 | 3.0 | 0.00 | 0.85 | 0.80 | 89 | 1012.4 |
| 20260509234333 | 71 | 201 | 0.0 | 0.0 | 0.00 | 0.85 | 0.80 | 87 | 1013.1 |
| 20260509233822 | 71 | 201 | 0.0 | 0.0 | 0.00 | 0.85 | 0.80 | 87 | 1012.8 |
| 20260509233038 | 70 | 143 | 0.0 | 2.0 | 0.00 | 0.85 | 0.80 | 88 | 1011.7 |
| 20260509232809 | 71 | 201 | 0.0 | 3.0 | 0.00 | 0.85 | 0.80 | 87 | 1012.6 |
| 20260509232259 | 71 | 201 | 1.0 | 3.0 | 0.00 | 0.85 | 0.80 | 87 | 1012.6 |
| 20260509231758 | 71 | 207 | 1.0 | 3.0 | 0.00 | 0.85 | 0.80 | 87 | 1012.6 |
| 20260509231541 | 70 | 149 | 0.0 | 3.0 | 0.00 | 0.85 | 0.80 | 88 | 1011.9 |
| 20260509231300 | 71 | 207 | 1.0 | 3.0 | 0.00 | 0.85 | 0.80 | 87 | 1012.8 |
| 20260509230756 | 71 | 210 | 1.0 | 3.0 | 0.00 | 0.85 | 0.80 | 87 | 1012.6 |
| 20260509230257 | 71 | 222 | 0.0 | 0.0 | 0.00 | 0.85 | 0.80 | 87 | 1012.5 |
| 20260509230035 | 70 | 167 | 0.0 | 0.0 | 0.00 | 0.85 | 0.80 | 88 | 1011.8 |
| 20260509225757 | 71 | 225 | 0.0 | 2.0 | 0.00 | 0.85 | 0.80 | 87 | 1012.6 |
| 20260509224534 | 71 | 164 | 0.0 | 1.0 | 0.00 | 0.85 | 0.80 | 88 | 1011.3 |
| 20260509224237 | 71 | 222 | 0.0 | 2.0 | 0.00 | 0.85 | 0.80 | 87 | 1012.3 |
| 20260509223732 | 71 | 222 | 0.0 | 2.0 | 0.00 | 0.85 | 0.80 | 87 | 1012.1 |
| 20260509223035 | 71 | 164 | 0.0 | 3.0 | 0.00 | 0.85 | 0.80 | 88 | 1011.2 |
| 20260509222715 | 71 | 222 | 0.0 | 3.0 | 0.00 | 0.85 | 0.80 | 87 | 1012.2 |
| 20260509222214 | 71 | 225 | 0.0 | 0.0 | 0.00 | 0.85 | 0.80 | 87 | 1012.1 |
| 20260509221716 | 71 | 225 | 0.0 | 1.0 | 0.00 | 0.85 | 0.80 | 87 | 1012.1 |
| 20260509221533 | 70 | 167 | 0.0 | 1.0 | 0.00 | 0.85 | 0.80 | 88 | 1011.5 |
| 20260509221209 | 71 | 225 | 0.0 | 1.0 | 0.00 | 0.85 | 0.80 | 87 | 1012.4 |
| 20260509220657 | 71 | 225 | 0.0 | 1.0 | 0.00 | 0.85 | 0.80 | 87 | 1012.4 |
| 20260509220149 | 71 | 225 | 0.0 | 1.0 | 0.00 | 0.85 | 0.80 | 87 | 1012.5 |
| 20260509220031 | 70 | 167 | 0.0 | 1.0 | 0.00 | 0.85 | 0.80 | 88 | 1011.7 |
| 20260509215646 | 71 | 225 | 0.0 | 0.0 | 0.00 | 0.85 | 0.80 | 87 | 1012.5 |
| 20260509215148 | 70 | 225 | 0.0 | 1.0 | 0.00 | 0.85 | 0.80 | 87 | 1012.5 |
| 20260509214649 | 70 | 225 | 1.0 | 4.0 | 0.00 | 0.85 | 0.80 | 87 | 1012.3 |
| 20260509214529 | 70 | 167 | 0.0 | 5.0 | 0.00 | 0.85 | 0.80 | 88 | 1011.4 |
| 20260509214150 | 70 | 224 | 1.0 | 4.0 | 0.00 | 0.85 | 0.80 | 87 | 1012.1 |
| 20260509213649 | 70 | 207 | 1.0 | 3.0 | 0.00 | 0.85 | 0.80 | 87 | 1012.0 |
| 20260509213150 | 70 | 199 | 0.0 | 2.0 | 0.00 | 0.85 | 0.80 | 87 | 1012.0 |
| 20260509213030 | 70 | 137 | 0.0 | 2.0 | 0.00 | 0.85 | 0.80 | 88 | 1011.2 |
| 20260509212650 | 70 | 195 | 1.0 | 4.0 | 0.00 | 0.85 | 0.80 | 87 | 1012.1 |
| 20260509211642 | 70 | 190 | 2.0 | 5.0 | 0.01 | 0.85 | 0.80 | 87 | 1012.1 |
| 20260509211529 | 70 | 133 | 1.0 | 5.0 | 0.01 | 0.85 | 0.80 | 88 | 1011.4 |
| 20260509211129 | 70 | 208 | 2.0 | 5.0 | 0.01 | 0.85 | 0.80 | 87 | 1012.4 |
| 20260509210622 | 70 | 195 | 1.0 | 4.0 | 0.01 | 0.85 | 0.80 | 87 | 1012.5 |
| 20260509210124 | 70 | 93 | 1.0 | 3.0 | 0.01 | 0.85 | 0.80 | 87 | 1012.5 |
| 20260509210029 | 70 | 35 | 0.0 | 3.0 | 0.01 | 0.85 | 0.80 | 88 | 1011.6 |
| 20260509205114 | 70 | 211 | 2.0 | 3.0 | 0.02 | 0.85 | 0.80 | 87 | 1012.5 |
| 20260509204528 | 70 | 156 | 1.0 | 4.0 | 0.03 | 0.85 | 0.80 | 87 | 1011.8 |
| 20260509204114 | 70 | 257 | 0.0 | 4.0 | 0.03 | 0.85 | 0.80 | 87 | 1012.6 |
| 20260509203612 | 70 | 313 | 0.0 | 2.0 | 0.04 | 0.85 | 0.80 | 87 | 1012.6 |
| 20260509203115 | 70 | 313 | 0.0 | 2.0 | 0.04 | 0.85 | 0.80 | 86 | 1012.7 |
| 20260509203037 | 70 | 255 | 0.0 | 2.0 | 0.05 | 0.85 | 0.80 | 87 | 1011.8 |
| 20260509202609 | 70 | 334 | 0.0 | 1.0 | 0.05 | 0.85 | 0.80 | 86 | 1012.8 |
| 20260509202059 | 70 | 334 | 0.0 | 1.0 | 0.05 | 0.85 | 0.80 | 86 | 1012.9 |
| 20260509201552 | 70 | 336 | 0.0 | 3.0 | 0.04 | 0.84 | 0.79 | 86 | 1012.9 |
| 20260509201528 | 70 | 278 | 0.0 | 1.0 | 0.04 | 0.84 | 0.79 | 87 | 1012.1 |
| 20260509201050 | 70 | 336 | 0.0 | 3.0 | 0.04 | 0.84 | 0.79 | 86 | 1013.0 |
| 20260509200027 | 70 | 278 | 0.0 | 4.0 | 0.04 | 0.84 | 0.79 | 87 | 1012.3 |
| 20260509195049 | 71 | 331 | 0.0 | 1.0 | 0.03 | 0.83 | 0.78 | 86 | 1013.2 |
| 20260509194546 | 71 | 331 | 0.0 | 1.0 | 0.02 | 0.82 | 0.77 | 86 | 1013.3 |
| 20260509194528 | 70 | 273 | 0.0 | 1.0 | 0.02 | 0.82 | 0.77 | 87 | 1012.5 |
| 20260509194045 | 71 | 331 | 0.0 | 1.0 | 0.02 | 0.82 | 0.77 | 86 | 1013.4 |
| 20260509193547 | 71 | 331 | 0.0 | 2.0 | 0.01 | 0.81 | 0.76 | 86 | 1013.4 |
| 20260509193046 | 71 | 331 | 1.0 | 3.0 | 0.00 | 0.80 | 0.75 | 86 | 1013.4 |
| 20260509193026 | 70 | 273 | 0.0 | 3.0 | 0.00 | 0.80 | 0.75 | 87 | 1012.6 |
| 20260509192543 | 71 | 330 | 2.0 | 6.0 | 0.01 | 0.80 | 0.75 | 86 | 1013.5 |
| 20260509192047 | 71 | 338 | 1.0 | 6.0 | 0.01 | 0.80 | 0.75 | 86 | 1013.4 |
| 20260509191542 | 71 | 353 | 1.0 | 3.0 | 0.01 | 0.80 | 0.75 | 85 | 1013.3 |
| 20260509191525 | 70 | 295 | 0.0 | 3.0 | 0.01 | 0.80 | 0.75 | 86 | 1012.4 |
| 20260509191041 | 71 | 353 | 2.0 | 5.0 | 0.01 | 0.80 | 0.75 | 85 | 1013.2 |
| 20260509190542 | 71 | 358 | 3.0 | 6.0 | 0.03 | 0.80 | 0.75 | 85 | 1013.0 |
| 20260509190039 | 70 | 355 | 3.0 | 6.0 | 0.08 | 0.80 | 0.75 | 85 | 1013.0 |
| 20260509190027 | 70 | 296 | 2.0 | 7.0 | 0.06 | 0.80 | 0.75 | 86 | 1012.2 |
| 20260509185533 | 70 | 3 | 3.0 | 7.0 | 0.16 | 0.80 | 0.75 | 85 | 1013.0 |
| 20260509185023 | 70 | 330 | 5.0 | 10.0 | 0.47 | 0.80 | 0.75 | 85 | 1012.9 |
| 20260509184525 | 70 | 299 | 4.0 | 11.0 | 0.69 | 0.80 | 0.75 | 86 | 1012.2 |
| 20260509184026 | 70 | 299 | 3.0 | 7.0 | 0.71 | 0.80 | 0.75 | 84 | 1013.0 |
| 20260509183024 | 70 | 307 | 1.0 | 8.0 | 0.72 | 0.80 | 0.75 | 85 | 1012.2 |
| 20260509182513 | 71 | 357 | 5.0 | 9.0 | 0.73 | 0.79 | 0.74 | 84 | 1013.1 |
| 20260509182014 | 71 | 333 | 5.0 | 12.0 | 0.73 | 0.79 | 0.74 | 84 | 1013.2 |
| 20260509181524 | 71 | 295 | 6.0 | 13.0 | 0.73 | 0.79 | 0.74 | 84 | 1012.2 |
| 20260509181509 | 72 | 3 | 5.0 | 12.0 | 0.73 | 0.79 | 0.74 | 83 | 1013.1 |
| 20260509181010 | 72 | 310 | 6.0 | 11.0 | 0.72 | 0.78 | 0.73 | 83 | 1013.0 |
| 20260509180503 | 72 | 341 | 7.0 | 13.0 | 0.71 | 0.77 | 0.72 | 82 | 1013.0 |
| 20260509180024 | 72 | 301 | 8.0 | 18.0 | 0.67 | 0.73 | 0.68 | 82 | 1012.1 |
| 20260509175955 | 73 | 349 | 9.0 | 17.0 | 0.64 | 0.70 | 0.67 | 81 | 1013.0 |
| 20260509175457 | 74 | 351 | 10.0 | 17.0 | 0.52 | 0.58 | 0.57 | 80 | 1013.1 |
| 20260509174956 | 75 | 349 | 7.0 | 17.0 | 0.16 | 0.22 | 0.25 | 78 | 1012.9 |
| 20260509174502 | 76 | 315 | 8.0 | 13.0 | 0.04 | 0.10 | 0.05 | 78 | 1011.9 |
| 20260509174500 | 76 | 15 | 5.0 | 12.0 | 0.04 | 0.10 | 0.05 | 77 | 1012.7 |
| 20260509173955 | 78 | 48 | 4.0 | 9.0 | 0.03 | 0.09 | 0.04 | 75 | 1012.6 |
| 20260509173455 | 79 | 359 | 4.0 | 9.0 | 0.03 | 0.09 | 0.04 | 74 | 1012.6 |
| 20260509173001 | 80 | 316 | 3.0 | 8.0 | 0.01 | 0.07 | 0.02 | 73 | 1011.8 |
| 20260509172956 | 80 | 4 | 3.0 | 7.0 | 0.00 | 0.06 | 0.02 | 72 | 1012.7 |
| 20260509171503 | 81 | 277 | 1.0 | 5.0 | 0.00 | 0.06 | 0.01 | 71 | 1012.0 |
| 20260509171437 | 82 | 336 | 2.0 | 7.0 | 0.00 | 0.06 | 0.01 | 70 | 1012.9 |
| 20260509170940 | 82 | 340 | 2.0 | 7.0 | 0.00 | 0.06 | 0.01 | 69 | 1012.9 |
| 20260509170435 | 82 | 349 | 1.0 | 4.0 | 0.00 | 0.06 | 0.01 | 70 | 1012.9 |
| 20260509170001 | 82 | 130 | 0.0 | 3.0 | 0.00 | 0.06 | 0.01 | 71 | 1012.0 |
| 20260509165935 | 82 | 188 | 2.0 | 3.0 | 0.00 | 0.06 | 0.01 | 70 | 1012.8 |
| 20260509164932 | 82 | 120 | 2.0 | 6.0 | 0.00 | 0.06 | 0.01 | 69 | 1012.9 |
| 20260509164606 | 82 | 295 | 3.0 | 6.0 | 0.00 | 0.06 | 0.01 | 69 | 1012.1 |
| 20260509164425 | 82 | 2 | 2.0 | 5.0 | 0.00 | 0.06 | 0.01 | 69 | 1012.9 |
| 20260509163922 | 83 | 353 | 2.0 | 5.0 | 0.00 | 0.06 | 0.01 | 69 | 1013.0 |
| 20260509163427 | 82 | 210 | 2.0 | 7.0 | 0.00 | 0.06 | 0.01 | 69 | 1013.1 |
| 20260509163058 | 82 | 287 | 2.0 | 8.0 | 0.00 | 0.06 | 0.01 | 70 | 1012.3 |
| 20260509162421 | 82 | 182 | 1.0 | 4.0 | 0.00 | 0.06 | 0.01 | 70 | 1013.2 |
| 20260509161922 | 82 | 203 | 2.0 | 6.0 | 0.00 | 0.06 | 0.01 | 70 | 1013.3 |
| 20260509161557 | 81 | 150 | 1.0 | 6.0 | 0.00 | 0.06 | 0.01 | 72 | 1012.4 |
| 20260509161419 | 82 | 351 | 2.0 | 6.0 | 0.00 | 0.06 | 0.01 | 70 | 1013.2 |
| 20260509160918 | 81 | 202 | 2.0 | 5.0 | 0.00 | 0.06 | 0.01 | 70 | 1013.0 |
| 20260509160420 | 81 | 178 | 3.0 | 8.0 | 0.00 | 0.06 | 0.01 | 72 | 1012.8 |
| 20260509160052 | 80 | 148 | 4.0 | 8.0 | 0.00 | 0.06 | 0.01 | 73 | 1012.0 |
| 20260509155919 | 80 | 247 | 2.0 | 8.0 | 0.00 | 0.06 | 0.01 | 73 | 1012.9 |
| 20260509155417 | 79 | 244 | 1.0 | 7.0 | 0.00 | 0.06 | 0.01 | 75 | 1012.9 |
| 20260509154548 | 77 | 176 | 1.0 | 5.0 | 0.00 | 0.06 | 0.01 | 79 | 1012.2 |
| 20260509154414 | 77 | 334 | 2.0 | 6.0 | 0.00 | 0.06 | 0.01 | 78 | 1013.1 |
| 20260509153914 | 76 | 338 | 3.0 | 8.0 | 0.00 | 0.06 | 0.01 | 79 | 1013.3 |
| 20260509153415 | 76 | 282 | 2.0 | 8.0 | 0.00 | 0.06 | 0.01 | 80 | 1013.2 |
| 20260509153058 | 75 | 305 | 2.0 | 7.0 | 0.00 | 0.06 | 0.01 | 82 | 1012.4 |
| 20260509152912 | 76 | 352 | 2.0 | 4.0 | 0.00 | 0.06 | 0.01 | 82 | 1013.3 |
| 20260509152412 | 75 | 41 | 2.0 | 5.0 | 0.00 | 0.06 | 0.01 | 84 | 1013.4 |
| 20260509151543 | 73 | 301 | 1.0 | 4.0 | 0.00 | 0.06 | 0.01 | 86 | 1012.7 |
| 20260509151412 | 74 | 358 | 2.0 | 4.0 | 0.00 | 0.06 | 0.01 | 85 | 1013.6 |
| 20260509150902 | 73 | 338 | 1.0 | 4.0 | 0.00 | 0.06 | 0.01 | 86 | 1013.5 |
| 20260509150036 | 72 | 293 | 1.0 | 3.0 | 0.00 | 0.06 | 0.01 | 88 | 1012.8 |
| 20260509145846 | 72 | 350 | 1.0 | 3.0 | 0.00 | 0.06 | 0.01 | 88 | 1013.7 |
| 20260509145345 | 72 | 345 | 1.0 | 4.0 | 0.00 | 0.06 | 0.01 | 88 | 1013.8 |
| 20260509144844 | 71 | 346 | 1.0 | 4.0 | 0.00 | 0.06 | 0.01 | 88 | 1014.0 |
| 20260509144533 | 70 | 285 | 1.0 | 4.0 | 0.00 | 0.06 | 0.01 | 89 | 1013.2 |
| 20260509144348 | 71 | 344 | 0.0 | 3.0 | 0.00 | 0.06 | 0.01 | 88 | 1014.0 |
| 20260509143839 | 71 | 343 | 1.0 | 3.0 | 0.00 | 0.06 | 0.01 | 88 | 1014.0 |
| 20260509143327 | 71 | 343 | 1.0 | 4.0 | 0.00 | 0.06 | 0.01 | 88 | 1014.2 |
| 20260509143031 | 70 | 284 | 0.0 | 4.0 | 0.00 | 0.06 | 0.01 | 89 | 1013.5 |
| 20260509142822 | 71 | 341 | 1.0 | 4.0 | 0.00 | 0.06 | 0.01 | 88 | 1014.4 |
| 20260509142322 | 71 | 348 | 1.0 | 3.0 | 0.00 | 0.06 | 0.01 | 88 | 1014.2 |
| 20260509141531 | 70 | 290 | 0.0 | 1.0 | 0.00 | 0.06 | 0.01 | 90 | 1013.1 |
| 20260509141309 | 71 | 348 | 0.0 | 1.0 | 0.00 | 0.06 | 0.01 | 89 | 1013.9 |
| 20260509140810 | 71 | 348 | 0.0 | 0.0 | 0.00 | 0.06 | 0.01 | 89 | 1014.0 |
| 20260509140308 | 70 | 348 | 0.0 | 3.0 | 0.00 | 0.06 | 0.01 | 89 | 1013.9 |
| 20260509140026 | 70 | 290 | 0.0 | 3.0 | 0.00 | 0.06 | 0.01 | 90 | 1013.1 |
| 20260509135755 | 70 | 348 | 1.0 | 4.0 | 0.00 | 0.06 | 0.01 | 89 | 1013.9 |
| 20260509135250 | 70 | 347 | 2.0 | 4.0 | 0.00 | 0.06 | 0.01 | 89 | 1013.9 |
| 20260509134746 | 70 | 346 | 2.0 | 4.0 | 0.00 | 0.06 | 0.01 | 89 | 1013.9 |
| 20260509134526 | 70 | 291 | 2.0 | 4.0 | 0.00 | 0.06 | 0.01 | 90 | 1013.0 |
| 20260509134247 | 70 | 347 | 2.0 | 4.0 | 0.00 | 0.06 | 0.01 | 89 | 1013.7 |
| 20260509133741 | 70 | 345 | 2.0 | 3.0 | 0.00 | 0.06 | 0.01 | 89 | 1013.7 |
| 20260509133232 | 70 | 346 | 2.0 | 3.0 | 0.00 | 0.06 | 0.01 | 89 | 1013.6 |
| 20260509133024 | 70 | 287 | 1.0 | 3.0 | 0.00 | 0.06 | 0.01 | 90 | 1012.9 |
| 20260509131745 | 70 | 345 | 1.0 | 3.0 | 0.00 | 0.06 | 0.01 | 89 | 1013.6 |
| 20260509131522 | 70 | 287 | 1.0 | 3.0 | 0.00 | 0.06 | 0.01 | 90 | 1012.8 |
| 20260509131219 | 70 | 349 | 0.0 | 3.0 | 0.00 | 0.06 | 0.01 | 89 | 1013.5 |
| 20260509130710 | 70 | 349 | 0.0 | 0.0 | 0.00 | 0.06 | 0.01 | 89 | 1013.5 |
| 20260509130223 | 70 | 349 | 0.0 | 0.0 | 0.00 | 0.06 | 0.01 | 89 | 1013.4 |
| 20260509130021 | 69 | 291 | 0.0 | 0.0 | 0.00 | 0.06 | 0.01 | 90 | 1012.6 |
| 20260509125711 | 69 | 349 | 0.0 | 0.0 | 0.00 | 0.06 | 0.01 | 89 | 1013.3 |
| 20260509125210 | 69 | 349 | 0.0 | 0.0 | 0.00 | 0.06 | 0.01 | 89 | 1013.3 |
| 20260509124659 | 69 | 348 | 0.0 | 0.0 | 0.00 | 0.06 | 0.01 | 89 | 1013.1 |
| 20260509124518 | 69 | 290 | 0.0 | 0.0 | 0.00 | 0.06 | 0.01 | 90 | 1012.3 |
| 20260509124148 | 69 | 347 | 0.0 | 0.0 | 0.00 | 0.06 | 0.01 | 89 | 1013.2 |
| 20260509123647 | 69 | 347 | 0.0 | 0.0 | 0.00 | 0.06 | 0.01 | 89 | 1013.2 |
| 20260509123149 | 69 | 347 | 0.0 | 0.0 | 0.00 | 0.06 | 0.01 | 88 | 1013.1 |
| 20260509123018 | 68 | 289 | 0.0 | 0.0 | 0.00 | 0.06 | 0.01 | 89 | 1012.2 |
| 20260509122648 | 69 | 347 | 0.0 | 0.0 | 0.00 | 0.06 | 0.01 | 88 | 1013.1 |
| 20260509122145 | 69 | 347 | 0.0 | 0.0 | 0.00 | 0.06 | 0.01 | 88 | 1013.0 |
| 20260509121649 | 68 | 347 | 0.0 | 0.0 | 0.00 | 0.06 | 0.01 | 88 | 1013.1 |
| 20260509121514 | 68 | 289 | 0.0 | 0.0 | 0.00 | 0.06 | 0.01 | 89 | 1012.2 |
| 20260509121143 | 69 | 347 | 0.0 | 0.0 | 0.00 | 0.06 | 0.01 | 88 | 1013.1 |
| 20260509120644 | 68 | 347 | 0.0 | 1.0 | 0.00 | 0.06 | 0.01 | 88 | 1013.1 |
| 20260509120144 | 68 | 347 | 0.0 | 1.0 | 0.00 | 0.06 | 0.01 | 88 | 1013.0 |
| 20260509120011 | 68 | 289 | 0.0 | 1.0 | 0.00 | 0.06 | 0.01 | 89 | 1012.2 |
| 20260509115141 | 68 | 347 | 0.0 | 2.0 | 0.00 | 0.06 | 0.01 | 88 | 1013.0 |
| 20260509114642 | 68 | 347 | 1.0 | 2.0 | 0.00 | 0.06 | 0.01 | 88 | 1012.9 |
| 20260509114507 | 68 | 289 | 0.0 | 2.0 | 0.00 | 0.06 | 0.01 | 89 | 1012.0 |
| 20260509113120 | 68 | 347 | 0.0 | 2.0 | 0.01 | 0.06 | 0.01 | 88 | 1012.7 |
| 20260509113006 | 67 | 289 | 0.0 | 2.0 | 0.01 | 0.06 | 0.01 | 89 | 1011.9 |
| 20260509112616 | 68 | 347 | 0.0 | 2.0 | 0.01 | 0.06 | 0.01 | 88 | 1012.8 |
| 20260509112105 | 67 | 347 | 0.0 | 1.0 | 0.01 | 0.06 | 0.01 | 88 | 1012.7 |
| 20260509111555 | 67 | 347 | 0.0 | 0.0 | 0.01 | 0.06 | 0.01 | 88 | 1012.6 |
| 20260509111503 | 67 | 289 | 0.0 | 0.0 | 0.01 | 0.06 | 0.01 | 89 | 1011.8 |
| 20260509111045 | 67 | 347 | 0.0 | 0.0 | 0.01 | 0.06 | 0.01 | 88 | 1012.6 |
| 20260509110532 | 67 | 347 | 0.0 | 0.0 | 0.01 | 0.06 | 0.01 | 88 | 1012.7 |
| 20260509110002 | 67 | 289 | 0.0 | 0.0 | 0.01 | 0.06 | 0.01 | 89 | 1011.7 |
| 20260509105516 | 67 | 347 | 1.0 | 3.0 | 0.01 | 0.06 | 0.01 | 88 | 1012.5 |
| 20260509105001 | 67 | 347 | 1.0 | 3.0 | 0.01 | 0.06 | 0.01 | 88 | 1012.4 |
| 20260509104600 | 67 | 289 | 2.0 | 3.0 | 0.01 | 0.06 | 0.01 | 88 | 1011.5 |
| 20260509104457 | 67 | 347 | 1.0 | 3.0 | 0.01 | 0.06 | 0.01 | 88 | 1012.2 |
| 20260509103957 | 67 | 347 | 0.0 | 1.0 | 0.01 | 0.06 | 0.01 | 87 | 1011.9 |
| 20260509103455 | 67 | 347 | 0.0 | 1.0 | 0.01 | 0.06 | 0.01 | 88 | 1011.9 |
| 20260509103103 | 67 | 289 | 0.0 | 0.0 | 0.00 | 0.05 | 0.00 | 89 | 1011.1 |
| 20260509102956 | 67 | 347 | 0.0 | 1.0 | 0.00 | 0.05 | 0.00 | 88 | 1011.9 |
| 20260509101954 | 67 | 347 | 0.0 | 1.0 | 0.00 | 0.05 | 0.00 | 88 | 1011.6 |
| 20260509101602 | 67 | 289 | 0.0 | 0.0 | 0.00 | 0.05 | 0.00 | 89 | 1010.8 |
| 20260509101445 | 67 | 347 | 0.0 | 2.0 | 0.00 | 0.05 | 0.00 | 88 | 1011.6 |
| 20260509100937 | 68 | 347 | 0.0 | 2.0 | 0.00 | 0.05 | 0.00 | 88 | 1011.6 |
| 20260509100058 | 67 | 290 | 0.0 | 1.0 | 0.00 | 0.05 | 0.00 | 88 | 1010.8 |
| 20260509095936 | 68 | 348 | 0.0 | 1.0 | 0.00 | 0.05 | 0.00 | 87 | 1011.6 |
| 20260509095432 | 68 | 348 | 0.0 | 0.0 | 0.00 | 0.05 | 0.00 | 87 | 1011.8 |
| 20260509094925 | 68 | 348 | 0.0 | 1.0 | 0.00 | 0.05 | 0.00 | 87 | 1011.8 |
| 20260509094600 | 67 | 290 | 0.0 | 1.0 | 0.00 | 0.05 | 0.00 | 89 | 1011.2 |
| 20260509093926 | 68 | 348 | 1.0 | 4.0 | 0.00 | 0.05 | 0.00 | 88 | 1012.2 |
| 20260509093421 | 68 | 348 | 2.0 | 5.0 | 0.00 | 0.05 | 0.00 | 88 | 1012.3 |
| 20260509093059 | 68 | 300 | 2.0 | 5.0 | 0.00 | 0.05 | 0.00 | 88 | 1011.6 |
| 20260509092921 | 68 | 358 | 2.0 | 5.0 | 0.00 | 0.05 | 0.00 | 87 | 1012.5 |
| 20260509091918 | 68 | 359 | 3.0 | 5.0 | 0.00 | 0.05 | 0.00 | 87 | 1012.4 |
| 20260509091627 | 68 | 292 | 3.0 | 5.0 | 0.00 | 0.05 | 0.00 | 88 | 1011.5 |
| 20260509091432 | 68 | 359 | 2.0 | 5.0 | 0.00 | 0.05 | 0.00 | 87 | 1012.3 |
| 20260509090920 | 68 | 350 | 3.0 | 7.0 | 0.00 | 0.05 | 0.00 | 87 | 1012.2 |
| 20260509090057 | 68 | 332 | 3.0 | 8.0 | 0.00 | 0.05 | 0.00 | 88 | 1011.5 |
| 20260509085917 | 68 | 358 | 3.0 | 8.0 | 0.00 | 0.05 | 0.00 | 87 | 1012.3 |
| 20260509084915 | 69 | 355 | 4.0 | 9.0 | 0.00 | 0.05 | 0.00 | 87 | 1012.2 |
| 20260509084555 | 68 | 287 | 4.0 | 10.0 | 0.00 | 0.05 | 0.00 | 88 | 1011.3 |
| 20260509083916 | 69 | 355 | 3.0 | 6.0 | 0.00 | 0.05 | 0.00 | 87 | 1011.8 |
| 20260509083056 | 69 | 312 | 0.0 | 2.0 | 0.00 | 0.05 | 0.00 | 88 | 1010.5 |
| 20260509082912 | 69 | 10 | 0.0 | 5.0 | 0.00 | 0.05 | 0.00 | 87 | 1011.4 |
| 20260509082415 | 69 | 10 | 1.0 | 5.0 | 0.00 | 0.05 | 0.00 | 87 | 1011.5 |
| 20260509081912 | 69 | 10 | 2.0 | 6.0 | 0.00 | 0.05 | 0.00 | 87 | 1011.6 |
| 20260509081555 | 69 | 311 | 1.0 | 7.0 | 0.00 | 0.05 | 0.00 | 88 | 1010.7 |
| 20260509081401 | 69 | 5 | 3.0 | 6.0 | 0.00 | 0.05 | 0.00 | 87 | 1011.6 |
| 20260509080851 | 69 | 347 | 1.0 | 5.0 | 0.00 | 0.05 | 0.00 | 87 | 1011.6 |
| 20260509080106 | 68 | 138 | 0.0 | 3.0 | 0.00 | 0.05 | 0.00 | 88 | 1010.2 |
| 20260509075843 | 69 | 191 | 0.0 | 3.0 | 0.00 | 0.05 | 0.00 | 87 | 1011.0 |
| 20260509075346 | 69 | 191 | 1.0 | 3.0 | 0.00 | 0.05 | 0.00 | 87 | 1011.1 |
| 20260509074840 | 69 | 183 | 1.0 | 3.0 | 0.00 | 0.05 | 0.00 | 87 | 1011.1 |
| 20260509074554 | 68 | 143 | 0.0 | 5.0 | 0.00 | 0.05 | 0.00 | 88 | 1010.4 |
| 20260509074340 | 69 | 201 | 2.0 | 6.0 | 0.00 | 0.05 | 0.00 | 87 | 1011.4 |
| 20260509073342 | 69 | 202 | 0.0 | 4.0 | 0.00 | 0.05 | 0.00 | 87 | 1011.3 |
| 20260509073116 | 68 | 137 | 0.0 | 2.0 | 0.00 | 0.05 | 0.00 | 88 | 1010.7 |
| 20260509072839 | 69 | 195 | 0.0 | 1.0 | 0.00 | 0.05 | 0.00 | 87 | 1011.6 |
| 20260509072330 | 69 | 195 | 0.0 | 1.0 | 0.00 | 0.05 | 0.00 | 87 | 1011.8 |
| 20260509071816 | 69 | 195 | 0.0 | 1.0 | 0.00 | 0.05 | 0.00 | 87 | 1011.9 |
| 20260509071547 | 68 | 137 | 0.0 | 0.0 | 0.00 | 0.05 | 0.00 | 88 | 1011.1 |
| 20260509071310 | 69 | 195 | 0.0 | 0.0 | 0.00 | 0.05 | 0.00 | 87 | 1012.0 |
| 20260509070812 | 69 | 195 | 0.0 | 2.0 | 0.00 | 0.05 | 0.00 | 87 | 1012.0 |
| 20260509070303 | 69 | 195 | 1.0 | 4.0 | 0.00 | 0.05 | 0.00 | 87 | 1012.1 |
| 20260509070048 | 68 | 137 | 0.0 | 5.0 | 0.00 | 0.05 | 0.00 | 88 | 1011.4 |
| 20260509065752 | 69 | 195 | 2.0 | 5.0 | 0.00 | 0.05 | 0.00 | 87 | 1012.2 |
| 20260509065244 | 68 | 232 | 2.0 | 5.0 | 0.00 | 0.05 | 0.00 | 86 | 1012.2 |
| 20260509064733 | 68 | 198 | 1.0 | 3.0 | 0.00 | 0.05 | 0.00 | 86 | 1012.5 |
| 20260509064544 | 68 | 130 | 1.0 | 3.0 | 0.00 | 0.05 | 0.00 | 87 | 1011.7 |
| 20260509063724 | 68 | 172 | 0.0 | 3.0 | 0.00 | 0.05 | 0.00 | 86 | 1012.6 |
| 20260509063044 | 68 | 4 | 0.0 | 2.0 | 0.00 | 0.05 | 0.00 | 87 | 1011.6 |
| 20260509062721 | 68 | 62 | 0.0 | 1.0 | 0.00 | 0.05 | 0.00 | 86 | 1012.3 |
| 20260509062213 | 68 | 62 | 0.0 | 1.0 | 0.00 | 0.05 | 0.00 | 86 | 1012.3 |
| 20260509061704 | 68 | 62 | 0.0 | 1.0 | 0.00 | 0.05 | 0.00 | 86 | 1012.5 |
| 20260509061541 | 68 | 4 | 0.0 | 1.0 | 0.00 | 0.05 | 0.00 | 87 | 1011.8 |
| 20260509061202 | 68 | 62 | 0.0 | 1.0 | 0.00 | 0.05 | 0.00 | 86 | 1012.8 |
| 20260509060706 | 68 | 62 | 0.0 | 0.0 | 0.00 | 0.05 | 0.00 | 86 | 1013.0 |
| 20260509060159 | 68 | 62 | 0.0 | 2.0 | 0.00 | 0.05 | 0.00 | 86 | 1013.1 |
| 20260509060047 | 68 | 4 | 0.0 | 2.0 | 0.00 | 0.05 | 0.00 | 87 | 1012.2 |
| 20260509055700 | 68 | 62 | 0.0 | 2.0 | 0.00 | 0.05 | 0.00 | 86 | 1013.1 |
| 20260509055200 | 68 | 62 | 0.0 | 1.0 | 0.00 | 0.05 | 0.00 | 86 | 1013.2 |
| 20260509054657 | 68 | 62 | 1.0 | 2.0 | 0.00 | 0.05 | 0.00 | 86 | 1013.5 |
| 20260509054538 | 68 | 4 | 0.0 | 2.0 | 0.00 | 0.05 | 0.00 | 87 | 1012.8 |
| 20260509054158 | 68 | 62 | 1.0 | 2.0 | 0.00 | 0.05 | 0.00 | 86 | 1013.6 |
| 20260509053659 | 68 | 62 | 1.0 | 3.0 | 0.00 | 0.05 | 0.00 | 86 | 1013.7 |
| 20260509053158 | 68 | 62 | 1.0 | 3.0 | 0.00 | 0.05 | 0.00 | 86 | 1013.5 |
| 20260509053037 | 68 | 4 | 1.0 | 3.0 | 0.00 | 0.05 | 0.00 | 87 | 1012.7 |
| 20260509052657 | 68 | 139 | 0.0 | 1.0 | 0.00 | 0.05 | 0.00 | 85 | 1013.5 |
| 20260509051654 | 68 | 139 | 1.0 | 5.0 | 0.00 | 0.05 | 0.00 | 85 | 1013.1 |
| 20260509051536 | 68 | 81 | 1.0 | 4.0 | 0.00 | 0.05 | 0.00 | 87 | 1012.2 |
| 20260509051153 | 68 | 184 | 1.0 | 3.0 | 0.00 | 0.05 | 0.00 | 85 | 1013.2 |
| 20260509050654 | 68 | 205 | 2.0 | 6.0 | 0.00 | 0.05 | 0.00 | 85 | 1013.1 |
| 20260509050151 | 68 | 220 | 2.0 | 6.0 | 0.00 | 0.05 | 0.00 | 85 | 1013.1 |
| 20260509050035 | 67 | 163 | 2.0 | 7.0 | 0.00 | 0.05 | 0.00 | 86 | 1012.3 |
| 20260509045141 | 67 | 218 | 2.0 | 7.0 | 0.00 | 0.05 | 0.00 | 85 | 1013.1 |
| 20260509044646 | 67 | 204 | 0.0 | 2.0 | 0.00 | 0.05 | 0.00 | 85 | 1013.3 |
| 20260509044537 | 67 | 145 | 0.0 | 2.0 | 0.00 | 0.05 | 0.00 | 86 | 1012.4 |
| 20260509044139 | 67 | 201 | 1.0 | 3.0 | 0.00 | 0.05 | 0.00 | 85 | 1013.5 |
| 20260509043631 | 67 | 198 | 1.0 | 3.0 | 0.00 | 0.05 | 0.00 | 85 | 1013.7 |
| 20260509043034 | 67 | 168 | 2.0 | 3.0 | 0.00 | 0.05 | 0.00 | 86 | 1013.0 |
| 20260509042631 | 67 | 243 | 0.0 | 1.0 | 0.00 | 0.05 | 0.00 | 85 | 1013.9 |
| 20260509042129 | 67 | 345 | 0.0 | 0.0 | 0.00 | 0.05 | 0.00 | 84 | 1014.2 |
| 20260509041619 | 68 | 345 | 0.0 | 0.0 | 0.00 | 0.05 | 0.00 | 85 | 1014.3 |
| 20260509041525 | 67 | 287 | 0.0 | 0.0 | 0.00 | 0.05 | 0.00 | 85 | 1013.5 |
| 20260509041114 | 68 | 345 | 0.0 | 0.0 | 0.00 | 0.05 | 0.00 | 85 | 1014.2 |
| 20260509040613 | 68 | 345 | 0.0 | 0.0 | 0.00 | 0.05 | 0.00 | 84 | 1014.4 |
| 20260509040115 | 68 | 345 | 0.0 | 0.0 | 0.00 | 0.05 | 0.00 | 84 | 1014.4 |
| 20260509040023 | 67 | 287 | 0.0 | 0.0 | 0.00 | 0.05 | 0.00 | 85 | 1013.6 |